デニング彗星

489P/Denning (2007)

English version
Home page
Updated on September 26, 2024

---------------------------------------------------------------------

・ プロフィール

符号 489P/2007 HE4
再発見日 2007年4月17日
再発見光度 18.7等
再発見者 LINEAR survey, Maik Meyer (Limburg, Germany)

・ 軌道要素

                    Epoch = 2007 Apr. 10.0 TT
     T = 2007 Apr. 22.44058 TT        Peri. = 108.04001
     e = 0.6449710                    Node  =  22.54844 2000.0
     q = 1.5767009 AU                 Incl. =   4.00754
       a =  4.4410482 AU   n = 0.10531151   P =   9.36 years

・ 光度変化

        m1 = 12.0 + 5 logΔ + 25 log r

        ※ 灰色の曲線は、H = 19.0  G = 0.15 の光度曲線です。

---------------------------------------------------------------------

軌道要素は、CBET 5425に掲載されたものです。
光度グラフはComet for Windowsで作成したものです。

---------------------------------------------------------------------

Copyright(C) Seiichi Yoshida (comet@aerith.net). All rights reserved.